Terug naar catalogus

STARLINK-37526

ActiefCommunicatieVLEO
NORAD 69463·PAYLOAD·🇺🇸 United States

Gelanceerd Jun 8, 2026 vanaf Cape Canaveral Space Force Station

Loading…

Volgende Passages (komende 24 uur)

TLE

VersSource: CelesTrak SupGP

Epoch: Sep 15, 2026, 03:42 UTC

1 69463C 26127W   26258.15465278 -.00033783  00000+0 -99816-3 0  2586
2 69463  53.1572 190.8453 0001309  84.4530 124.5533 15.34406459    15

Volg STARLINK-37526 in realtime met AllMySat

Download on the App Store